星链-34605 (STARLINK-34605)

导读 | 星芒AI

STARLINK-34605 是 SpaceX Starlink 卫星互联网项目中的一颗低轨卫星,属于第 12 批次发射的 Starlink 卫星群。该卫星于 2023 年 9 月 由猎鹰 9 号火箭送入近地轨道,旨在为全球用户提供高速、低延迟的宽带互联网服务。它运行在约 550 公里的高度,配备先进的相控阵天线和激光通信系统,以提升网络效率和覆盖范围。Starlink 项目致力于构建全球卫星互联网网络,尤其服务于偏远地区。

基本信息
目录编号:
64677
目录名称:
STARLINK-34605
国际标识:
2025-139P
轨道中心:
EARTH
卫星名称:
星链-34605
卫星全名:
星链-34605 (STARLINK-34605)
卫星状态:
在轨 (已飞行134 天)
发射日期:
2025-06-28 UTC
国别 :
美国 (US)
星等 :
--
轨道信息
数据来源 国际轨道数据
星历时间: 2025-11-08T19:12:16+0800
1天前
查看轨道信息
半长轴: 6825.196km
偏心率: 0.0001567
轨道倾角: 53.159°
近地点辐角 86.307°
升交点赤经 325.200°
平近点角 273.812°
近地点: 445.991km
远地点: 448.131km
周期: 93.526分钟
每日圈数: 15.396786
详细信息
固有亮度:
5
最大亮度:
2.5
卫星平台:
Starlink V1.0
覆盖范围:
全球
运营商:
太空探索技术公司
运营商所在国:
美国
制造商(研发单位):
太空探索技术公司
制造商所在国:
美国
使用方式:
暂无
卫星简介
Starlink 计划是 SpaceX 推出的全球卫星互联网项目,通过发射低轨道卫星,为全球尤其是偏远地区提供高速、低延迟的互联网服务。自 2019 年起,Starlink 已部署数千颗卫星,旨在缩小全球数字鸿沟,推动互联网普及。该项目还为军事、航空等行业提供通信支持,带来广泛经济效益。
2D轨道图
3D轨道图
轨道高度分析图
轨道倾角分析图
轨道综合分析图
查看轨道综合分析图